Hourly Weather Roundup
Issued by NWS Central Illinois

Home | Current Version | Previous Version | Text Only | Print | Product List | Glossary On
Versions: 1 2 3 4 5 6 7 8 9 10 11 12 13 14 15 16 17 18 19 20 21 22 23 24 25 26 27 28 29 30 31 32 33 34 35 36 37 38 39 40 41 42 43 44 45 46 47 48 49 50
000
NZUS43 KILX 221710
HWRILX

Area Weather Roundup
National Weather Service Lincoln IL
1200 PM CDT TUE AUG 22 2017

NOTE:  "FAIR" indicates few or no clouds below 12,000 feet, with
       no sigificant weather and/or obstructions to visibility.


CITY           SKY/WX    TMP DP  RH WIND       PRES   REMARKS
Bloomington    CLOUDY    75  67  76 W15       29.97S
Champaign      CLOUDY    76  67  73 W9G17     29.96S
Danville       PTSUNNY   75  68  78 W14G20    29.92S
Decatur        CLOUDY    77  67  71 W10       29.97S
Effingham      CLOUDY    74  73  93 W7        30.00F
Flora          CLOUDY    76  72  86 CALM      29.99S
Galesburg      PTSUNNY   73  64  73 NW14G20   30.01R
Jacksonville   PTSUNNY   74  67  77 W12       30.01R
Lacon          CLOUDY    72  65  78 NW12      29.96R
Lawrenceville  CLOUDY    76  72  87 SW3       29.97F
Litchfield     CLOUDY    73  68  84 NW8       30.01S
$$


CITY           SKY/WX    TMP DP  RH WIND       PRES   REMARKS
Lincoln        CLOUDY    76  69  77 W6        29.97S
Macomb         MOSUNNY   75  66  71 NW14G21   30.03R
Mattoon        LGT RAIN  76  71  85 W8        29.97S
Mt Carmel AP   CLOUDY    75  71  87 CALM      29.97S
Olney-Noble AP CLOUDY    75  73  93 CALM      29.99S
Paris AP       CLOUDY    76  70  82 W12       29.97S
Peoria         PTSUNNY   76  66  71 NW8       29.97R
Pontiac        CLOUDY    74  70  88 NW14G22   29.95S
Rantoul        PTSUNNY   77  69  77 W9G16     29.95S
Robinson       CLOUDY    75  71  86 SW5       29.98F
Springfield    CLOUDY    77  69  76 W12       29.98F
Taylorville    CLOUDY    74  68  80 W10       30.00S
$$

...REGIONAL REPORTS...


CITY           SKY/WX    TMP DP  RH WIND       PRES   REMARKS
Chicago O`Hare PTSUNNY   75  61  61 W18       29.89R
Kankakee       CLOUDY    73  67  80 W14       29.93R
Moline         PTSUNNY   75  63  66 W13       29.99R
Mount Sterling PTSUNNY   75  66  75 NW12G17   30.01S
Mount Vernon   LGT RAIN  75  73  93 N6        29.99S
Pittsfield     MOSUNNY   76  67  73 NW10G16   30.04R
Quincy         MOSUNNY   76  66  71 NW10      30.02S
Rockford       MOSUNNY   76  60  57 NW17      29.94R
$$


CITY           SKY/WX    TMP DP  RH WIND       PRES   REMARKS
Burlington     PTSUNNY   75  64  68 NW16G22   30.01R
Cedar Rapids   MOSUNNY   73  58  59 N18       30.02S
Des Moines     MOSUNNY   74  54  49 NW14      30.10R
Kirksville     SUNNY     77  61  57 NW13      30.08R
Ottumwa        MOSUNNY   74  59  59 NW15G25   30.07R
St Louis       CLOUDY    73  72  96 NW10      30.03R
$$


CITY           SKY/WX    TMP DP  RH WIND       PRES   REMARKS
Terre Haute    CLOUDY    76  69  79 W7        29.96S
Evansville     CLOUDY    80  73  79 S3        29.96F HX  84
Indianapolis   CLOUDY    74  70  87 SW12      29.94F
Lafayette      CLOUDY    74  69  85 SW9       29.91F
Madison        PTSUNNY   73  55  53 N14G24    29.93R
Milwaukee      PTSUNNY   79  57  46 W16G25    29.86R HX  80
$$






USA.gov is the U.S. government's official web portal to all federal, state and local government web resources and services.